N370MK KBCT-MYAM

Flight info

Callsign N370MK
Flight time 0h 33m
Altitude 19000
Route TURPS2 HALBI BR63V ZFP
Aircraft E55P/M-SBDFGHJ2RWY/LB2

Departure

Time 2026-04-25 20:11
Airport Boca Raton Airport (KBCT)

Arrival

Time 2026-04-25 20:45
Airport Leonard M. Thompson International Airport (MYAM)
Time Latitude Longitude Altitude Speed Heading
2026-04-25 19:43 26.37772 -80.11069 17 ft 0 kts 45°
2026-04-25 20:05 26.37776 -80.11064 17 ft 1 kts 45°
2026-04-25 20:05 26.37781 -80.11037 17 ft 5 kts 102°
2026-04-25 20:05 26.37777 -80.10995 17 ft 5 kts 89°
2026-04-25 20:05 26.37774 -80.10963 17 ft 3 kts 95°
2026-04-25 20:06 26.37786 -80.10941 17 ft 3 kts 38°
2026-04-25 20:06 26.37808 -80.10921 17 ft 4 kts 36°
2026-04-25 20:06 26.37817 -80.10910 17 ft 0 kts 116°
2026-04-25 20:06 26.37807 -80.10914 17 ft 4 kts 230°
2026-04-25 20:07 26.37762 -80.10972 17 ft 13 kts 225°
2026-04-25 20:07 26.37688 -80.11046 17 ft 14 kts 224°
2026-04-25 20:07 26.37617 -80.11122 17 ft 14 kts 224°
2026-04-25 20:07 26.37546 -80.11198 17 ft 14 kts 226°
2026-04-25 20:08 26.37477 -80.11275 17 ft 14 kts 224°
2026-04-25 20:08 26.37408 -80.11350 17 ft 13 kts 225°
2026-04-25 20:08 26.37340 -80.11425 17 ft 13 kts 223°
2026-04-25 20:08 26.37280 -80.11475 17 ft 6 kts 167°
2026-04-25 20:09 26.37269 -80.11465 17 ft 5 kts 120°
2026-04-25 20:09 26.37251 -80.11432 17 ft 4 kts 119°
2026-04-25 20:09 26.37256 -80.11412 17 ft 0 kts 44°
2026-04-25 20:11 26.37437 -80.11215 17 ft 77 kts 45°
2026-04-25 20:11 26.37992 -80.10609 35 ft 139 kts 45°
2026-04-25 20:11 26.38808 -80.09835 410 ft 167 kts 39°
2026-04-25 20:11 26.39804 -80.08989 912 ft 196 kts 40°
2026-04-25 20:12 26.40936 -80.08099 1699 ft 210 kts 34°
2026-04-25 20:12 26.42193 -80.07062 2126 ft 241 kts 42°
2026-04-25 20:12 26.43517 -80.05824 2782 ft 258 kts 41°
2026-04-25 20:12 26.43979 -80.05390 3128 ft 257 kts 41°
2026-04-25 20:13 26.46188 -80.03258 4679 ft 257 kts 41°
2026-04-25 20:13 26.47532 -80.01923 5450 ft 263 kts 41°
2026-04-25 20:13 26.48888 -80.00540 6260 ft 267 kts 41°
2026-04-25 20:13 26.50247 -79.99134 7095 ft 270 kts 41°
2026-04-25 20:14 26.51627 -79.97703 7925 ft 274 kts 41°
2026-04-25 20:14 26.53019 -79.96256 8741 ft 277 kts 41°
2026-04-25 20:14 26.54432 -79.94775 9577 ft 280 kts 41°
2026-04-25 20:14 26.55856 -79.93273 10329 ft 285 kts 41°
2026-04-25 20:15 26.57377 -79.91658 10362 ft 317 kts 41°
2026-04-25 20:15 26.58996 -79.89934 10907 ft 327 kts 41°
2026-04-25 20:15 26.60624 -79.88193 11804 ft 324 kts 41°
2026-04-25 20:15 26.62234 -79.86447 12611 ft 324 kts 41°
2026-04-25 20:16 26.63842 -79.84694 13292 ft 329 kts 41°
2026-04-25 20:16 26.65446 -79.82825 13924 ft 338 kts 50°
2026-04-25 20:16 26.66359 -79.80378 14601 ft 349 kts 75°
2026-04-25 20:16 26.66843 -79.77731 15254 ft 355 kts 83°
2026-04-25 20:17 26.66895 -79.74967 15905 ft 358 kts 84°
2026-04-25 20:17 26.67011 -79.72152 16552 ft 362 kts 86°
2026-04-25 20:17 26.67118 -79.69344 17110 ft 367 kts 85°
2026-04-25 20:17 26.67227 -79.66498 17700 ft 370 kts 85°
2026-04-25 20:18 26.67334 -79.63602 18287 ft 373 kts 85°
2026-04-25 20:18 26.67442 -79.60704 18825 ft 378 kts 85°
2026-04-25 20:18 26.67556 -79.57729 18943 ft 394 kts 85°
2026-04-25 20:18 26.67672 -79.54600 18964 ft 411 kts 85°
2026-04-25 20:19 26.67793 -79.51332 18965 ft 426 kts 85°
2026-04-25 20:19 26.67891 -79.48014 18954 ft 426 kts 88°
2026-04-25 20:19 26.67851 -79.44772 18950 ft 417 kts 88°
2026-04-25 20:19 26.67839 -79.41525 18949 ft 409 kts 88°
2026-04-25 20:20 26.67821 -79.38360 18950 ft 403 kts 88°
2026-04-25 20:20 26.67802 -79.35281 18951 ft 398 kts 88°
2026-04-25 20:20 26.67787 -79.32175 18947 ft 393 kts 88°
2026-04-25 20:20 26.67770 -79.29167 18948 ft 389 kts 88°
2026-04-25 20:21 26.67753 -79.26136 18948 ft 385 kts 88°
2026-04-25 20:21 26.67734 -79.23188 18951 ft 382 kts 88°
2026-04-25 20:21 26.67716 -79.20214 18948 ft 379 kts 88°
2026-04-25 20:21 26.67694 -79.17266 18949 ft 377 kts 88°
2026-04-25 20:22 26.67680 -79.14357 18953 ft 375 kts 87°
2026-04-25 20:22 26.67715 -79.13407 18945 ft 373 kts 83°
2026-04-25 20:22 26.67546 -79.08574 18950 ft 372 kts 91°
2026-04-25 20:22 26.67258 -79.05701 18932 ft 373 kts 104°
2026-04-25 20:23 26.66670 -79.02928 18955 ft 369 kts 95°
2026-04-25 20:23 26.66284 -79.00100 18955 ft 368 kts 96°
2026-04-25 20:23 26.65979 -78.97259 18953 ft 367 kts 94°
2026-04-25 20:23 26.65708 -78.94405 18953 ft 366 kts 94°
2026-04-25 20:24 26.65458 -78.91609 18957 ft 366 kts 93°
2026-04-25 20:24 26.65209 -78.88783 18965 ft 366 kts 93°
2026-04-25 20:24 26.64961 -78.85942 18949 ft 366 kts 94°
2026-04-25 20:24 26.64712 -78.83119 18927 ft 366 kts 94°
2026-04-25 20:25 26.64466 -78.80292 18936 ft 366 kts 94°
2026-04-25 20:25 26.64216 -78.77462 18939 ft 366 kts 94°
2026-04-25 20:25 26.63967 -78.74633 18928 ft 366 kts 94°
2026-04-25 20:25 26.63717 -78.71801 18926 ft 366 kts 94°
2026-04-25 20:26 26.63462 -78.68948 18934 ft 366 kts 94°
2026-04-25 20:26 26.63214 -78.66155 18943 ft 366 kts 94°
2026-04-25 20:26 26.62962 -78.63303 18943 ft 366 kts 94°
2026-04-25 20:26 26.62709 -78.60474 18936 ft 366 kts 93°
2026-04-25 20:27 26.62455 -78.57632 18944 ft 367 kts 93°
2026-04-25 20:27 26.62199 -78.54801 18941 ft 367 kts 93°
2026-04-25 20:27 26.61947 -78.51957 18945 ft 367 kts 93°
2026-04-25 20:27 26.61693 -78.49140 18939 ft 368 kts 94°
2026-04-25 20:28 26.61438 -78.46313 18945 ft 368 kts 94°
2026-04-25 20:28 26.61177 -78.43435 18942 ft 368 kts 93°
2026-04-25 20:28 26.60920 -78.40588 18936 ft 368 kts 94°
2026-04-25 20:28 26.60665 -78.37770 18931 ft 368 kts 94°
2026-04-25 20:29 26.60406 -78.34941 18934 ft 368 kts 94°
2026-04-25 20:29 26.60144 -78.32072 18926 ft 368 kts 94°
2026-04-25 20:29 26.59885 -78.29221 18925 ft 367 kts 94°
2026-04-25 20:29 26.59624 -78.26412 18554 ft 361 kts 94°
2026-04-25 20:30 26.59375 -78.23676 18044 ft 352 kts 94°
2026-04-25 20:30 26.59128 -78.20984 17539 ft 342 kts 94°
2026-04-25 20:30 26.58885 -78.18379 17041 ft 335 kts 94°
2026-04-25 20:30 26.58654 -78.15819 16545 ft 328 kts 94°
2026-04-25 20:31 26.58424 -78.13331 16021 ft 324 kts 95°
2026-04-25 20:31 26.58192 -78.10840 15404 ft 322 kts 95°
2026-04-25 20:31 26.57964 -78.08363 14798 ft 320 kts 95°
2026-04-25 20:31 26.57733 -78.05899 14188 ft 318 kts 95°
2026-04-25 20:32 26.57506 -78.03450 13580 ft 316 kts 95°
2026-04-25 20:32 26.57278 -78.01017 12976 ft 314 kts 95°
2026-04-25 20:32 26.57051 -77.98630 12380 ft 312 kts 95°
2026-04-25 20:32 26.56826 -77.96239 11777 ft 310 kts 95°
2026-04-25 20:33 26.56605 -77.93890 11331 ft 302 kts 95°
2026-04-25 20:33 26.56388 -77.91587 10950 ft 293 kts 95°
2026-04-25 20:33 26.56177 -77.89346 10601 ft 284 kts 95°
2026-04-25 20:33 26.56042 -77.87901 10381 ft 282 kts 95°
2026-04-25 20:34 26.55764 -77.84972 9959 ft 286 kts 95°
2026-04-25 20:34 26.55554 -77.82758 9635 ft 287 kts 95°
2026-04-25 20:34 26.55340 -77.80502 9309 ft 289 kts 95°
2026-04-25 20:34 26.55130 -77.78290 8987 ft 289 kts 95°
2026-04-25 20:35 26.54914 -77.76035 8660 ft 289 kts 95°
2026-04-25 20:35 26.54702 -77.73802 8337 ft 289 kts 95°
2026-04-25 20:35 26.54488 -77.71571 8014 ft 289 kts 95°
2026-04-25 20:35 26.54277 -77.69336 7690 ft 288 kts 95°
2026-04-25 20:36 26.54065 -77.67139 7374 ft 287 kts 95°
2026-04-25 20:36 26.53852 -77.64904 7053 ft 286 kts 95°
2026-04-25 20:36 26.53638 -77.62699 6735 ft 284 kts 95°
2026-04-25 20:36 26.53427 -77.60496 6421 ft 283 kts 95°
2026-04-25 20:37 26.53218 -77.58333 6109 ft 281 kts 95°
2026-04-25 20:37 26.53009 -77.56173 5799 ft 280 kts 95°
2026-04-25 20:37 26.52799 -77.54009 5489 ft 278 kts 95°
2026-04-25 20:37 26.52592 -77.51848 5177 ft 271 kts 95°
2026-04-25 20:38 26.52519 -77.51113 5071 ft 269 kts 95°
2026-04-25 20:38 26.52340 -77.49290 4810 ft 263 kts 95°
2026-04-25 20:38 26.52256 -77.48407 4684 ft 260 kts 95°
2026-04-25 20:38 26.52122 -77.47027 4488 ft 256 kts 95°
2026-04-25 20:39 26.51934 -77.45091 4212 ft 254 kts 95°
2026-04-25 20:39 26.51741 -77.43131 3937 ft 254 kts 95°
2026-04-25 20:39 26.51551 -77.41162 3657 ft 254 kts 95°
2026-04-25 20:39 26.51423 -77.39865 3472 ft 254 kts 95°
2026-04-25 20:40 26.51166 -77.37249 3092 ft 253 kts 95°
2026-04-25 20:40 26.50975 -77.35307 2808 ft 251 kts 95°
2026-04-25 20:40 26.50787 -77.33392 2529 ft 250 kts 95°
2026-04-25 20:40 26.50598 -77.31463 2301 ft 246 kts 95°
2026-04-25 20:41 26.50392 -77.29599 2262 ft 235 kts 97°
2026-04-25 20:41 26.50350 -77.27827 2258 ft 223 kts 88°
2026-04-25 20:41 26.50397 -77.26098 2258 ft 213 kts 87°
2026-04-25 20:41 26.50467 -77.24490 2261 ft 204 kts 86°
2026-04-25 20:42 26.50539 -77.22932 2259 ft 197 kts 86°
2026-04-25 20:42 26.50613 -77.21393 2021 ft 200 kts 86°
2026-04-25 20:42 26.50688 -77.19835 1769 ft 198 kts 86°
2026-04-25 20:42 26.50759 -77.18336 1513 ft 183 kts 86°
2026-04-25 20:43 26.50791 -77.17005 1312 ft 157 kts 86°
2026-04-25 20:43 26.50822 -77.15871 1141 ft 139 kts 86°
2026-04-25 20:43 26.50850 -77.14838 944 ft 128 kts 86°
2026-04-25 20:43 26.50875 -77.13874 771 ft 123 kts 86°
2026-04-25 20:44 26.50899 -77.12936 610 ft 118 kts 87°
2026-04-25 20:44 26.50923 -77.12029 453 ft 115 kts 86°
2026-04-25 20:44 26.50946 -77.11132 305 ft 115 kts 86°
2026-04-25 20:44 26.50975 -77.10230 168 ft 117 kts 88°
2026-04-25 20:45 26.50990 -77.09352 13 ft 108 kts 86°
2026-04-25 20:45 26.51011 -77.08585 13 ft 89 kts 89°
2026-04-25 20:45 26.51028 -77.08147 16 ft 20 kts 63°
2026-04-25 20:45 26.51097 -77.08025 15 ft 7 kts 58°
2026-04-25 20:46 26.51118 -77.07989 15 ft 3 kts 58°
2026-04-25 20:46 26.51131 -77.07967 15 ft 3 kts 47°
2026-04-25 20:46 26.51151 -77.07973 15 ft 3 kts 287°
2026-04-25 20:46 26.51151 -77.08003 15 ft 4 kts 268°
2026-04-25 20:47 26.51150 -77.08057 15 ft 8 kts 268°
2026-04-25 20:47 26.51148 -77.08123 15 ft 8 kts 268°
2026-04-25 20:47 26.51147 -77.08192 15 ft 9 kts 269°
2026-04-25 20:47 26.51145 -77.08266 14 ft 9 kts 269°
2026-04-25 20:48 26.51144 -77.08318 14 ft 0 kts 268°
2026-04-25 20:50 26.51144 -77.08328 14 ft 5 kts 268°
2026-04-25 20:50 26.51176 -77.08362 14 ft 9 kts 348°
2026-04-25 20:50 26.51258 -77.08380 13 ft 13 kts 349°
2026-04-25 20:51 26.51318 -77.08417 12 ft 9 kts 267°
2026-04-25 20:51 26.51316 -77.08475 11 ft 4 kts 343°
2026-04-25 20:51 26.51334 -77.08456 12 ft 3 kts 87°
2026-04-25 20:51 26.51333 -77.08427 12 ft 2 kts 90°
2026-04-25 20:52 26.51333 -77.08425 12 ft 0 kts 90°